Location: Vancouver
(49.2500°N, 123.1330°W)
Time: 16:40:08
(UTC-07:00)

Oscar 11 - Visible Passes

Search period start: 31 July 2014 00:00
Search period end: 10 August 2014 00:00
Orbit: 617 x 630 km, 97.8° (Epoch: 31 July)

Date Brightness Start Highest point End Pass type
(mag) Time Alt. Az. Time Alt. Az. Time Alt. Az.
31 Jul 7.3 22:14:37 10° S 22:18:54 69° WSW 22:23:14 10° NNW visible
01 Aug 8.0 22:33:21 10° S 22:37:28 45° W 22:41:38 10° NNW visible
02 Aug 8.7 22:52:17 10° SSW 22:56:05 30° W 22:59:54 10° NNW visible
03 Aug 7.5 21:34:09 10° SE 21:38:17 48° ENE 21:42:27 10° N visible
03 Aug 9.2 23:11:32 10° SW 23:14:44 20° W 23:17:58 10° NW visible
04 Aug 7.1 21:52:27 10° SSE 21:56:44 73° ENE 22:01:03 10° N visible
04 Aug 9.6 23:31:16 10° WSW 23:33:27 14° W 23:35:38 10° WNW visible
05 Aug 7.2 22:11:10 11° S 22:15:14 75° WSW 22:19:34 10° NNW visible
06 Aug 7.8 22:29:57 12° S 22:33:46 49° W 22:37:59 10° NNW visible
07 Aug 8.1 21:12:27 10° SE 21:16:13 30° ENE 21:20:00 10° N visible
07 Aug 8.5 22:48:43 11° SSW 22:52:22 32° W 22:56:17 10° NNW visible
08 Aug 7.6 21:30:31 10° SE 21:34:36 44° ENE 21:38:44 10° N visible
08 Aug 9.1 23:07:40 10° SW 23:11:01 22° W 23:14:23 10° NW visible
09 Aug 7.1 21:49:02 12° SSE 21:53:02 67° ENE 21:57:21 10° N visible
09 Aug 9.6 23:27:16 10° WSW 23:29:42 15° W 23:32:10 10° NW visible
